Location: Matrei
(47.1333°N, 11.4500°E)
Time: 17:49:43
(UTC+00:00)

STARLINK-80 - Pass Details

Date: 07 June 2020
Orbit: 487 x 491 km, 53.0° (Epoch: 09 July)

Event Time Altitude Azimuth Distance (km) Brightness Sun altitude
Exits shadow 00:21:49 48° 226° (SW) 647 3.6 -18.4°
Maximum altitude 00:22:46 79° 149° (SSE) 506 3.2 -18.3°
Drops below altitude 10° 00:26:35 10° 63° (ENE) 1,688 6.7 -18.1°
Sets 00:28:46 0° 62° (ENE) 2,572 7.8 -18.0°
